Location: Anuling
(14.1239°N, 120.8922°E)
Time: 22:20:38
(UTC+00:00)

Cosmos 1933 Rocket - Visible Passes

Search period start: 18 April 2026 00:00
Search period end: 28 April 2026 00:00
Orbit: 601 x 622 km, 82.5° (Epoch: 18 April)

Date Brightness Start Highest point End Pass type
(mag) Time Alt. Az. Time Alt. Az. Time Alt. Az.
18 Apr 6.4 11:54:19 10° SW 11:57:12 17° W 12:00:06 10° NW visible
19 Apr 4.0 10:30:31 10° SSE 10:34:33 38° E 10:38:36 10° NNE visible
20 Apr 3.5 10:45:02 10° S 10:49:22 84° E 10:53:45 10° N visible
21 Apr 4.8 11:00:06 10° SSW 11:04:15 45° W 11:08:26 10° NNW visible
22 Apr 6.2 11:15:47 10° SW 11:19:10 22° W 11:22:33 10° NNW visible
23 Apr 7.1 11:33:09 10° W 11:34:07 11° W 11:35:04 10° WNW visible
25 Apr 7.4 20:47:51 10° ENE 20:48:28 10° E 20:49:04 10° E visible
26 Apr 6.0 10:37:24 10° SW 10:41:07 28° W 10:44:52 10° NNW visible
26 Apr 6.5 21:00:05 10° NNE 21:03:25 21° E 21:06:44 10° SE visible
27 Apr 6.9 10:53:50 10° WSW 10:56:04 14° W 10:58:18 10° NW visible
